Voltar ao catálogo

STARLINK-5786

AtivoComunicaçõesVLEO
NORAD 56032·PAYLOAD·🇺🇸 United States

Lançado Mar 24, 2023 de Cape Canaveral Space Force Station

Loading…

Próximas Passagens (próximas 24 horas)

TLE

AtualizadoSource: CelesTrak SupGP

Época: Sep 15, 2026, 02:50 UTC

1 56032C 23042AY  26258.11854167 -.00032689  00000+0 -11849-2 0  2585
2 56032  43.0023  55.5703 0002022 269.4559 120.5754 15.27567904    12

Acompanhe STARLINK-5786 em tempo real com AllMySat

Download on the App Store